Location: Asheville, NC
(35.6000°N, 82.5500°W)
Time: 03:29:20
(UTC-04:00)

Vanguard 3 - Pass Details

Date: 12 March 2018
Orbit: 508 x 3264 km, 33.3° (Epoch: 17 June)

Event Time Altitude Azimuth Distance (km) Brightness Sun altitude
Rises 08:44:26 0° 224° (SW) 7,072 11.6 11.1°
Reaches altitude 10° 08:49:18 10° 220° (SW) 6,161 11.4 12.1°
Maximum altitude 09:08:01 51° 152° (SSE) 3,531 11.1 15.8°
Drops below altitude 10° 09:22:20 10° 83° (E) 4,850 12.5 18.6°
Sets 09:25:36 0° 78° (ENE) 5,537 12.4 19.2°
